Temperature
20 20 19 19 19 18 18 18 18 17 17 17 17 16 16 16 16 16 16 15 15 15 15 15 15 15 15 15 14 14 14 14 14 14 14 14 14 14 14 14 14 15 15
20 19 19 19 18 18 18 18 17 17 17 17 16 16 16 16 16 16 15 15 15 15 15 15 15 14 14 14 14 14 14 14 14 14 14 14 14 14 14 14 14 14 14
19 19 19 18 18 18 18 17 17 17 16 16 16 16 16 16 16 15 15 15 15 15 15 14 14 14 14 14 14 14 14 13 13 13 13 13 13 13 14 14 14 14 14
19 19 19 18 18 18 17 17 17 17 16 16 16 16 16 15 15 15 15 15 15 15 14 14 14 14 14 14 13 13 13 13 13 13 13 13 13 13 13 13 13 13 13
19 19 18 18 17 17 17 17 16 16 16 16 16 16 15 15 15 15 15 15 14 14 14 14 14 14 13 13 13 13 13 13 12 12 12 12 12 12 12 12 12 13 13
19 18 18 18 17 17 17 16 16 16 16 16 15 15 15 15 15 15 14 14 14 14 14 14 13 13 13 13 13 13 12 12 12 12 12 12 12 12 12 12 12 12 12
19 18 18 17 17 17 16 16 16 16 16 15 15 15 15 15 15 14 14 14 14 13 13 13 13 13 13 13 13 12 12 12 12 12 12 12 12 12 12 12 12 12 12
18 18 18 17 17 16 16 16 16 16 15 15 15 15 15 14 14 14 14 13 13 13 13 13 13 13 12 12 12 12 12 12 12 12 11 11 11 11 11 11 11 11 12
18 18 17 17 16 16 16 16 15 15 15 15 15 15 14 14 14 14 13 13 13 13 13 13 12 12 12 12 12 12 12 12 11 11 11 11 11 11 11 11 11 11 11
17 17 16 16 16 16 16 15 15 15 15 15 14 14 14 14 14 13 13 13 13 13 12 12 12 12 12 12 12 11 11 11 11 11 11 11 11 11 11 11 11 11 10
16 16 16 16 16 15 15 15 15 15 15 14 14 14 14 14 13 13 13 13 12 12 12 12 12 12 12 11 11 11 11 11 11 11 11 11 11 10 10 10 10 10 10
16 16 15 15 15 15 15 15 15 14 14 14 14 14 13 13 13 13 13 12 12 12 12 12 12 11 11 11 11 11 11 11 11 11 10 10 10 10 10 10 10 10 10
15 15 15 15 15 14 14 14 14 14 14 14 13 13 13 13 13 13 13 12 12 12 12 11 11 11 11 11 11 11 10 10 10 10 10 10 10 10 10 10 10 10 10
15 15 15 14 14 14 14 14 14 13 13 13 13 13 13 13 12 12 12 12 12 11 11 11 11 11 11 11 11 10 10 10 10 10 10 10 10 10 10 10 10 10 10
14 14 14 14 14 13 13 13 13 13 13 13 13 13 12 12 12 12 12 12 12 11 11 11 11 11 11 11 10 10 10 10 10 10 10 10 10 10 9 9 10 9 9
14 14 13 13 13 13 13 12 12 12 12 12 12 12 12 12 12 12 12 11 11 11 11 11 11 11 11 10 10 10 10 10 10 10 10 9 9 9 9 9 9 9 9
13 13 13 13 12 12 12 12 12 12 12 12 12 12 12 12 11 11 11 11 11 11 11 10 10 10 10 10 10 10 10 10 10 9 9 9 9 9 9 9 9 9 9
13 13 12 12 12 12 12 12 12 12 11 12 12 12 12 11 11 11 11 11 11 11 10 10 10 10 10 10 10 10 10 10 10 9 9 9 9 9 9 9 9 9 9
12 12 12 12 12 12 11 11 11 11 11 11 11 11 11 11 11 11 10 10 10 10 10 10 10 10 10 10 10 9 9 9 9 9 9 9 9 9 9 9 9 8 8
12 12 12 12 12 11 11 11 11 11 11 11 11 11 11 11 11 11 10 10 10 10 10 10 10 10 10 9 9 9 9 9 9 9 9 9 9 8 8 8 8 8 8
11 11 11 11 11 11 11 11 11 11 11 11 11 11 10 10 10 10 10 10 10 10 10 10 10 10 9 9 9 9 9 9 9 8 8 8 8 8 8 8 8 8 8
11 11 11 11 10 10 10 11 10 10 10 10 10 10 10 10 10 10 10 10 10 10 10 10 10 10 9 9 9 9 9 9 9 8 8 8 8 8 8 8 8 8 8
11 11 10 10 10 10 10 10 10 10 10 10 10 10 10 10 10 10 10 10 10 10 10 9 9 9 9 9 9 8 8 8 8 8 8 8 8 8 8 8 8 8 8
11 10 10 10 10 10 10 10 10 10 10 10 10 10 10 10 10 10 9 9 9 9 9 9 9 9 9 9 8 8 8 8 8 8 8 8 8 8 8 8 7 7 7
10 10 10 10 10 10 10 10 10 10 10 10 10 10 10 9 9 9 9 9 9 9 9 9 9 9 9 8 8 8 8 8 8 8 8 8 8 8 8 7 7 7 7
10 10 10 10 10 10 9 9 9 10 10 9 9 9 9 9 9 9 9 9 9 9 9 9 9 8 8 8 8 8 8 8 8 8 7 7 7 7 7 7 7 7 7
Wind_Speed
5 5 5 5 4 5 4 4 4 3 3 3 3 3 2 2 2 2 2 1 1 0 1 1 1 0 0 0 0 1 1 2 2 3 2 2 2 2 2 2 2 1 2
5 5 5 4 4 4 4 4 4 3 3 3 3 2 2 2 2 2 2 2 2 1 1 0 1 0 0 0 0 1 1 2 2 3 2 2 2 2 2 1 2 2 2
5 6 5 4 5 5 4 3 3 3 3 3 3 3 2 2 2 2 3 2 2 2 2 2 2 1 1 1 1 1 1 1 1 2 2 2 2 2 1 2 2 2 2
5 5 5 5 5 5 4 4 4 4 4 3 3 3 2 2 2 2 2 2 2 2 2 2 3 3 2 2 1 1 1 1 1 1 2 2 2 2 1 1 2 2 2
5 5 5 4 4 4 4 4 3 3 4 3 3 2 2 3 3 3 3 3 2 2 2 3 3 3 2 2 2 2 2 2 1 1 2 2 2 1 1 1 2 3 2
5 5 4 4 3 3 3 3 3 3 2 2 3 3 3 3 3 4 3 3 2 3 3 3 3 2 3 3 3 2 3 3 3 2 2 3 4 3 2 2 2 2 3
4 4 3 3 3 3 3 3 4 3 3 2 2 3 3 3 3 3 3 2 2 3 3 3 3 3 2 2 3 2 3 3 4 4 4 5 4 4 3 3 3 3 4
3 3 3 3 3 2 2 3 3 3 3 3 3 3 3 3 3 3 3 2 2 2 2 3 4 3 3 1 2 2 3 3 4 3 4 5 4 4 4 3 4 3 3
2 2 2 3 3 3 3 4 3 3 2 2 2 3 3 3 3 3 3 2 2 2 2 3 3 3 4 2 1 2 3 3 3 2 3 4 4 3 2 1 1 2 3
2 2 2 3 4 4 4 3 2 2 2 2 2 2 3 3 3 3 3 2 2 2 2 2 3 3 4 3 3 3 4 4 3 3 3 3 2 2 3 3 3 3 2
1 1 1 2 4 4 3 2 2 2 2 2 2 2 2 3 3 4 4 3 3 2 2 2 3 3 3 4 4 4 6 4 3 2 2 2 1 1 2 3 3 4 3
0 0 0 1 2 2 2 2 2 2 2 2 1 2 2 2 3 4 4 4 4 3 3 3 3 4 3 3 3 4 4 3 2 1 2 2 2 2 2 2 3 4 4
1 0 0 0 1 1 3 3 2 2 2 2 2 3 3 2 2 3 4 4 3 3 3 4 4 4 3 3 3 3 3 2 2 2 3 3 3 3 2 2 2 2 2
0 1 1 1 1 1 2 3 3 3 3 3 3 4 3 3 3 2 3 3 3 2 2 2 3 2 2 2 2 2 2 3 3 3 3 3 2 2 2 2 2 1 1
1 1 1 1 2 2 2 3 4 4 5 5 5 5 4 5 6 6 5 3 3 2 1 1 1 1 1 2 2 2 2 2 3 3 3 3 3 2 3 2 2 2 2
1 2 1 2 2 2 2 2 2 3 4 5 6 5 5 7 6 6 6 6 5 4 3 2 2 3 3 3 3 3 3 3 3 3 3 3 3 3 3 2 2 2 3
3 3 2 2 2 2 2 2 2 3 2 3 5 6 6 6 6 5 5 5 4 5 3 4 4 4 4 4 4 4 4 4 3 3 3 3 3 3 3 3 3 3 3
2 3 3 3 3 3 4 4 3 3 3 3 4 5 6 6 6 5 4 3 2 3 4 5 5 5 5 5 5 4 4 3 3 3 3 3 3 3 3 4 3 4 3
3 3 3 3 3 3 3 3 3 3 4 3 3 3 4 3 3 3 4 3 4 4 5 6 6 5 5 5 5 4 4 4 3 3 4 4 3 3 3 4 3 4 3
3 4 3 2 2 2 2 3 3 3 4 4 4 4 2 1 2 3 3 4 5 5 5 6 6 6 5 5 5 4 4 4 4 4 4 4 3 3 4 4 3 3 3
3 3 3 2 2 2 3 4 4 4 4 4 4 4 5 4 5 5 5 5 5 6 6 5 5 5 5 4 4 5 5 4 4 4 4 4 4 4 4 4 4 4 4
3 3 3 3 3 3 3 3 4 4 5 5 4 4 5 4 5 5 5 5 6 6 5 5 5 5 5 5 5 5 5 5 5 5 4 4 4 4 4 4 4 3 4
3 4 4 3 3 4 4 4 4 4 5 5 4 4 4 4 5 5 6 6 5 5 4 4 4 4 4 4 4 5 5 5 5 5 5 5 4 4 4 4 4 4 4
4 5 5 4 4 4 4 4 4 5 5 5 5 4 5 5 5 6 6 5 5 4 4 4 4 5 5 4 4 4 5 5 4 4 5 5 5 4 4 4 5 5 5
4 4 4 4 4 4 4 4 4 5 5 5 4 4 5 5 5 5 5 4 5 4 5 4 4 5 6 6 5 4 5 5 5 4 4 4 5 5 5 5 5 5 5
4 4 4 3 4 4 4 4 4 4 4 4 4 4 4 5 5 5 4 4 4 4 4 4 4 5 5 5 5 5 5 5 5 4 4 4 4 4 4 4 5 5 4
Wind_Direction
176 174 172 170 167 160 165 175 177 178 178 176 178 172 166 161 154 147 164 152 139 79 44 80 334 303 30 297 191 196 213 207 237 275 279 296 284 310 341 333 320 338 334
178 172 177 167 158 164 176 179 174 175 183 185 179 173 173 164 166 171 189 177 172 187 231 219 278 273 10 351 350 223 231 219 213 260 290 297 287 299 325 321 334 329 319
168 168 169 171 173 180 186 184 177 178 186 190 175 180 187 188 194 199 192 191 205 221 227 233 248 217 256 282 278 260 251 242 225 240 278 290 291 306 322 328 329 319 322
163 164 174 184 187 189 191 191 190 183 184 192 187 188 191 188 193 198 195 196 213 233 239 240 240 218 224 238 243 242 242 242 226 238 273 289 285 289 295 307 320 324 312
158 167 181 182 181 177 186 192 190 192 197 192 183 186 194 203 207 198 204 209 218 245 260 259 252 244 242 242 248 231 220 226 219 241 267 285 285 286 279 275 288 305 298
160 172 176 169 175 187 193 194 190 197 198 186 191 196 209 228 222 209 204 208 224 238 254 269 274 268 281 280 273 239 209 209 213 226 249 257 268 266 262 262 270 290 294
161 167 166 168 179 198 200 195 202 201 197 207 210 203 217 233 223 218 210 205 222 234 243 261 276 282 299 287 292 291 260 240 225 220 235 244 247 243 244 261 259 255 263
157 169 166 162 185 201 201 212 213 204 205 212 213 212 218 235 226 222 214 212 228 240 242 250 257 269 273 269 288 300 282 267 256 234 227 236 240 237 225 235 247 261 270
154 181 183 180 184 197 212 223 219 205 212 214 212 203 211 243 226 214 190 189 224 247 255 254 252 253 261 236 234 270 286 286 279 271 259 255 254 240 204 202 236 257 279
207 216 208 197 196 208 220 217 212 200 209 200 215 218 216 234 230 211 187 188 222 253 265 263 253 253 247 230 220 234 262 278 286 296 301 296 279 251 220 206 210 223 252
241 209 206 215 213 211 207 197 189 192 188 196 218 242 236 237 231 211 203 201 214 230 242 255 264 266 252 249 235 235 248 256 259 256 263 279 288 260 244 232 213 209 220
73 109 222 238 229 204 183 191 187 183 194 217 233 266 276 263 234 222 213 214 208 212 236 246 253 256 255 265 255 251 255 255 245 239 245 260 271 281 276 262 237 223 224
79 81 244 267 238 202 193 196 194 193 205 225 231 245 266 275 259 233 219 215 206 216 242 252 259 262 263 263 265 258 246 234 238 244 244 254 256 261 272 269 257 235 251
225 287 282 243 254 234 216 206 203 207 211 217 225 237 249 255 254 242 228 221 216 228 252 273 278 279 283 290 296 272 247 233 229 240 249 252 257 257 256 261 266 273 285
239 267 283 270 247 246 241 229 224 225 216 212 222 217 221 240 246 234 220 224 224 226 218 286 316 307 306 307 298 289 271 256 248 251 251 256 259 259 267 268 257 253 256
263 282 279 273 269 262 260 291 291 248 240 226 221 217 232 234 240 230 227 225 219 200 178 227 246 249 252 258 262 269 266 260 259 256 258 260 261 256 260 263 249 245 253
231 242 246 243 241 249 249 240 270 318 303 251 240 234 237 242 235 229 226 219 207 178 200 231 239 242 245 249 251 254 260 262 256 252 255 260 261 261 253 253 249 249 253
244 239 234 245 245 241 239 234 225 233 265 284 274 250 244 243 234 228 209 170 208 205 229 238 241 242 244 247 248 252 256 255 251 249 252 255 256 257 259 255 245 249 255
252 248 238 240 242 238 239 235 229 230 241 258 283 280 257 249 240 226 190 214 234 240 240 243 245 244 245 246 247 250 251 252 255 252 252 254 253 252 256 256 251 244 247
254 251 232 228 237 241 239 236 236 237 242 249 255 260 250 226 248 243 235 245 246 247 246 247 247 246 244 245 246 245 245 249 252 252 255 255 252 247 250 252 250 244 244
242 247 235 225 240 248 246 241 238 236 242 250 258 256 226 227 233 235 237 242 248 249 247 247 247 243 241 240 239 239 240 245 248 247 248 250 250 246 246 245 246 245 246
228 232 231 234 245 252 254 247 240 240 243 251 264 264 233 234 237 240 242 244 247 248 243 237 239 239 235 235 231 230 234 241 243 242 243 245 245 244 241 241 246 252 251
229 236 239 242 245 253 256 253 247 248 250 251 252 254 244 242 245 246 249 251 251 249 244 234 236 244 246 243 236 228 230 236 241 239 236 238 238 239 237 238 242 246 247
235 239 244 250 250 251 255 257 253 250 252 255 255 250 245 245 249 251 252 254 253 250 245 237 234 237 239 241 239 234 235 243 245 236 232 234 236 238 237 239 244 245 245
240 243 246 249 252 255 260 264 261 254 252 255 257 257 256 254 255 256 256 255 253 251 248 242 237 238 240 238 237 234 235 238 240 239 226 226 233 237 238 239 244 246 241
240 242 247 250 251 253 258 267 272 268 261 258 256 258 260 259 259 257 255 252 252 253 253 247 241 239 244 240 238 231 225 229 231 231 220 217 226 236 240 240 239 238 239
Height
1508 1509 1510 1511 1513 1515 1515 1516 1517 1518 1518 1519 1519 1519 1520 1520 1521 1521 1521 1521 1521 1520 1520 1520 1519 1519 1518 1518 1517 1517 1517 1516 1515 1514 1514 1514 1514 1514 1514 1514 1514 1513 1513
1506 1507 1508 1510 1511 1512 1513 1514 1515 1516 1516 1517 1517 1518 1518 1518 1518 1519 1519 1519 1519 1518 1518 1518 1517 1516 1516 1515 1515 1515 1514 1514 1513 1512 1511 1512 1511 1511 1511 1511 1511 1510 1510
1503 1505 1506 1508 1509 1510 1511 1512 1513 1514 1514 1515 1515 1515 1516 1516 1516 1516 1516 1516 1516 1516 1516 1515 1515 1514 1513 1513 1512 1512 1511 1511 1510 1510 1509 1509 1508 1508 1508 1508 1508 1508 1507
1501 1503 1504 1506 1507 1508 1509 1510 1510 1511 1512 1512 1512 1513 1513 1514 1514 1514 1514 1514 1513 1513 1513 1512 1512 1511 1511 1510 1509 1509 1508 1508 1507 1507 1506 1506 1506 1505 1505 1504 1504 1504 1504
1499 1500 1502 1504 1505 1506 1507 1508 1508 1509 1509 1510 1510 1511 1511 1511 1511 1511 1512 1511 1511 1510 1510 1510 1509 1509 1508 1508 1507 1505 1505 1504 1504 1504 1503 1503 1502 1502 1502 1502 1501 1501 1501
1496 1497 1499 1501 1502 1503 1504 1505 1506 1506 1507 1507 1507 1508 1508 1508 1509 1509 1509 1509 1508 1508 1507 1507 1506 1506 1505 1504 1503 1502 1502 1501 1500 1500 1500 1499 1499 1499 1499 1499 1498 1498 1497
1494 1496 1497 1498 1499 1500 1501 1502 1503 1503 1504 1504 1505 1505 1505 1505 1506 1506 1506 1506 1506 1505 1505 1504 1503 1502 1502 1501 1499 1499 1498 1498 1498 1497 1496 1496 1496 1496 1495 1495 1495 1495 1495
1492 1493 1494 1495 1496 1497 1498 1499 1500 1500 1500 1501 1502 1502 1502 1503 1503 1503 1503 1503 1503 1502 1502 1501 1500 1499 1498 1497 1496 1495 1495 1494 1494 1494 1493 1493 1493 1493 1493 1493 1492 1492 1491
1491 1491 1492 1493 1494 1495 1496 1497 1497 1497 1498 1498 1498 1499 1499 1500 1500 1500 1500 1499 1499 1499 1498 1498 1497 1496 1495 1494 1493 1492 1491 1491 1491 1490 1490 1490 1490 1490 1489 1489 1489 1488 1487
1489 1490 1491 1492 1492 1493 1493 1494 1494 1494 1495 1495 1495 1496 1496 1496 1497 1497 1497 1496 1496 1496 1495 1495 1494 1493 1492 1491 1490 1489 1488 1487 1487 1487 1487 1486 1486 1486 1486 1486 1486 1485 1484
1488 1488 1489 1490 1490 1490 1491 1491 1492 1492 1492 1493 1492 1493 1493 1493 1493 1493 1493 1493 1493 1492 1492 1491 1491 1490 1489 1488 1487 1486 1485 1484 1484 1483 1483 1483 1483 1482 1482 1482 1482 1482 1482
1486 1486 1487 1488 1488 1488 1489 1489 1489 1490 1490 1490 1489 1489 1489 1489 1490 1490 1489 1490 1489 1489 1488 1488 1488 1488 1487 1485 1484 1483 1482 1481 1481 1480 1480 1479 1479 1479 1479 1479 1479 1479 1479
1484 1484 1484 1485 1485 1486 1486 1486 1486 1486 1486 1486 1486 1486 1486 1486 1486 1486 1486 1486 1486 1486 1485 1485 1485 1484 1484 1483 1482 1481 1480 1479 1478 1477 1476 1476 1476 1477 1477 1477 1476 1476 1476
1482 1482 1481 1481 1481 1482 1482 1483 1482 1482 1482 1482 1482 1482 1482 1482 1482 1482 1482 1483 1483 1483 1482 1482 1482 1481 1480 1480 1479 1478 1477 1476 1475 1474 1474 1474 1474 1474 1474 1473 1473 1473 1472
1480 1479 1479 1478 1478 1478 1479 1479 1479 1479 1480 1480 1479 1479 1478 1478 1479 1479 1479 1479 1479 1479 1479 1479 1478 1478 1477 1476 1476 1475 1474 1473 1472 1472 1470 1470 1469 1470 1470 1470 1470 1469 1469
1477 1476 1475 1475 1475 1475 1475 1476 1476 1477 1477 1476 1476 1476 1475 1475 1475 1475 1475 1476 1476 1476 1476 1475 1474 1474 1473 1472 1472 1471 1471 1470 1469 1468 1468 1467 1466 1466 1467 1466 1466 1466 1465
1474 1473 1472 1472 1471 1472 1472 1472 1472 1472 1473 1472 1472 1472 1472 1472 1472 1471 1471 1472 1472 1472 1471 1470 1470 1470 1469 1469 1468 1468 1467 1466 1466 1465 1464 1464 1463 1463 1463 1463 1462 1462 1462
1471 1470 1469 1468 1467 1468 1468 1468 1468 1467 1467 1467 1468 1468 1468 1468 1468 1467 1467 1467 1467 1467 1466 1466 1466 1465 1465 1465 1464 1464 1463 1462 1461 1461 1460 1460 1460 1459 1459 1459 1459 1459 1458
1467 1466 1465 1465 1465 1464 1464 1464 1464 1464 1464 1463 1463 1463 1464 1464 1464 1463 1463 1462 1462 1462 1462 1462 1461 1461 1460 1460 1459 1459 1459 1458 1458 1457 1456 1456 1456 1456 1455 1455 1455 1455 1455
1463 1463 1462 1461 1461 1460 1460 1460 1460 1460 1460 1460 1459 1459 1459 1459 1458 1458 1458 1458 1458 1457 1457 1457 1457 1456 1456 1455 1455 1454 1454 1454 1454 1453 1453 1452 1452 1452 1452 1452 1451 1451 1451
1459 1459 1458 1458 1457 1457 1456 1456 1456 1456 1456 1455 1455 1455 1455 1454 1454 1454 1453 1453 1453 1453 1452 1452 1452 1451 1450 1450 1450 1450 1450 1450 1450 1449 1449 1448 1448 1448 1448 1448 1448 1447 1447
1456 1455 1454 1454 1453 1453 1453 1452 1452 1452 1452 1451 1451 1451 1451 1450 1450 1450 1449 1449 1448 1448 1448 1448 1447 1446 1446 1446 1445 1445 1445 1445 1445 1445 1445 1444 1444 1444 1444 1444 1444 1444 1443
1452 1451 1450 1450 1450 1449 1449 1448 1448 1448 1447 1447 1447 1446 1446 1446 1445 1445 1445 1444 1444 1443 1443 1443 1442 1442 1441 1441 1441 1441 1441 1441 1441 1441 1440 1440 1440 1440 1440 1440 1440 1440 1440
1448 1447 1446 1446 1446 1446 1445 1445 1444 1443 1443 1443 1442 1442 1442 1441 1441 1441 1440 1440 1439 1439 1439 1438 1438 1438 1437 1437 1437 1437 1437 1437 1437 1437 1436 1436 1436 1436 1436 1436 1436 1436 1436
1443 1443 1442 1442 1441 1441 1441 1440 1440 1439 1439 1438 1437 1437 1437 1437 1436 1436 1436 1435 1435 1435 1434 1434 1433 1433 1433 1433 1433 1433 1433 1433 1432 1432 1432 1432 1432 1433 1433 1432 1432 1432 1432
1438 1438 1438 1437 1437 1437 1436 1435 1435 1435 1434 1433 1433 1432 1432 1432 1432 1431 1431 1431 1430 1430 1430 1429 1429 1429 1429 1429 1429 1428 1428 1428 1428 1428 1428 1428 1428 1429 1429 1429 1429 1429 1429